[[{"header":{"parameterUnit":"m.s-1","parameterCategory":2,"la1":30.2991,"la2":30.254,"lo1":-89.0895,"lo2":-89.0444,"dy":0.0017,"dx":0.0017,"nx":28,"ny":28,"refTime":"2025-03-09T21:00:00:Z","depth":"0","parameterNumber":2,"parameterNumberName":"U-component_of_CURRENTS"},"data":[0,0,0,0,0,0,0,0,0,0,0,0,0,0,0,0,0,0,0,0,0,0,0,0,0,0,0,0,0,0,0,0,0,0,0,0,0,0,0,0,0,0,0,0,0,0,0,0,0,0,0,0,0,0,0,0,0,0,-0.255,-0.2551,0,-0.2558,-0.2558,-0.2558,-0.2519,-0.2518,-0.2517,-0.2516,-0.2464,-0.2464,-0.2463,0,0,0,0,0,0,0,0,0,0,0,0,0,-0.2514,-0.2515,-0.255,-0.2551,-0.2551,-0.2558,-0.2558,-0.2558,-0.2519,-0.2518,-0.2517,-0.2516,-0.2465,-0.2464,-0.2463,0,0,0,0,0,0,0,0,0,0,0,0,0,-0.2523,-0.2515,-0.255,-0.2535,-0.2534,-0.2558,-0.2558,-0.2558,-0.2519,-0.2518,-0.2517,-0.2516,-0.2465,-0.2464,-0.2463,-0.2482,0,0,-0.246,-0.246,0,0,0,0,0,0,0,0,-0.2523,-0.2524,-0.2537,-0.2536,-0.2535,-0.2539,-0.2526,-0.253,-0.252,-0.2521,-0.2516,-0.2515,-0.2487,-0.2484,-0.2484,-0.2479,-0.2477,-0.246,-0.2459,-0.2459,-0.2459,0,0,0,0,0,0,0,-0.2522,-0.2524,-0.255,-0.2537,-0.2536,-0.2533,-0.2532,-0.2527,-0.2507,-0.2521,-0.2519,-0.2526,-0.2485,-0.2485,-0.2483,-0.2476,-0.246,-0.2459,-0.2459,-0.2458,-0.2487,-0.2488,0,0,0,0,0,0,-0.2529,-0.2523,-0.255,-0.255,-0.253,-0.2535,-0.2534,-0.2536,-0.2508,-0.2504,-0.2527,-0.2524,-0.2488,-0.2484,-0.2481,-0.2505,-0.2459,-0.2458,-0.2458,-0.2485,-0.2487,-0.2488,0,0,0,0,0,0,-0.2528,-0.2531,-0.2549,-0.254,-0.2542,-0.2537,-0.254,-0.2537,-0.2532,-0.2514,-0.2508,-0.2524,-0.2486,-0.2482,-0.2488,-0.2503,-0.2458,-0.2457,-0.2484,-0.2486,-0.2488,-0.2552,0,0,0,0,0,0,-0.2527,-0.2531,-0.2531,-0.254,-0.2543,-0.2562,-0.2541,-0.2538,-0.254,-0.2536,-0.251,-0.2504,-0.2485,-0.2489,-0.2487,-0.25,-0.2456,-0.2482,-0.2485,-0.2487,-0.2548,-0.2556,-0.2562,0,0,0,0,0,-0.2526,-0.2523,-0.2531,-0.2534,-0.2545,-0.2563,-0.2564,-0.2554,-0.2542,-0.2543,-0.2536,-0.2505,-0.2503,-0.249,-0.2487,-0.25,-0.2481,-0.2484,-0.2487,-0.2545,-0.2554,-0.2562,0,0,0,0,0,0,-0.249,-0.252,-0.2528,-0.2531,-0.2551,-0.2558,-0.2553,-0.2558,-0.2554,-0.2546,-0.2525,-0.252,-0.253,-0.2512,-0.2498,-0.2517,-0.2486,-0.2488,-0.2531,-0.2539,-0.2546,-0.2537,-0.2455,0,0,0,0,0,-0.2491,-0.2504,-0.2532,-0.2532,-0.2542,-0.2552,-0.2557,-0.2559,-0.2562,-0.2558,-0.2547,-0.2538,-0.2543,-0.2537,-0.2534,-0.2545,-0.2522,-0.2552,-0.2559,-0.2565,-0.2557,-0.2561,-0.2567,-0.2498,-0.2498,-0.2498,0,0,-0.2474,-0.2495,-0.2498,-0.2528,-0.2535,-0.2561,-0.2549,-0.256,-0.2583,-0.2554,-0.2567,-0.2563,-0.2553,-0.2569,-0.2571,-0.2552,-0.2573,-0.2569,-0.2574,-0.2562,-0.2564,-0.2571,-0.2577,-0.25,-0.25,-0.25,0,0,-0.2458,-0.2468,-0.2481,-0.2509,-0.254,-0.2556,-0.2564,-0.2584,-0.2589,-0.2617,-0.2604,-0.2612,-0.2613,-0.2612,-0.2612,-0.2658,-0.2614,-0.2654,-0.2678,-0.2683,-0.2688,-0.2693,-0.2669,-0.267,-0.2654,-0.2654,-0.2654,0,-0.2439,-0.2463,-0.2485,-0.2516,-0.2537,-0.2558,-0.2583,-0.2603,-0.2625,-0.2637,-0.2626,-0.2648,-0.2636,-0.2662,-0.2674,-0.2672,-0.2656,-0.2646,-0.2692,-0.2696,-0.2699,-0.2673,-0.2674,-0.2658,-0.2657,-0.2657,-0.2657,0,-0.2442,-0.2471,-0.2477,-0.2531,-0.2557,-0.2578,-0.2622,-0.2646,-0.266,-0.2682,-0.2711,-0.2709,-0.2715,-0.2722,-0.2709,-0.2732,-0.2706,-0.2704,-0.2668,-0.271,-0.268,-0.268,-0.2663,-0.2661,-0.266,-0.266,0,0,-0.2372,-0.2465,-0.2466,-0.2507,-0.2569,-0.2592,-0.2639,-0.2688,-0.2718,-0.2743,-0.2773,-0.2789,-0.2782,-0.2781,-0.2772,-0.2774,-0.2783,-0.2746,-0.2744,-0.2717,-0.2771,-0.2721,-0.2716,-0.279,-0.279,-0.2791,-0.2739,0,-0.2366,-0.2432,-0.2478,-0.2538,-0.2573,-0.2625,-0.2671,-0.2721,-0.2754,-0.2791,-0.2804,-0.2825,-0.2809,-0.2809,-0.2814,-0.2789,-0.2786,-0.2795,-0.2738,-0.2735,-0.2683,-0.2716,-0.2588,-0.2528,-0.2738,-0.2738,-0.2738,0,-0.2345,-0.2402,-0.2458,-0.2562,-0.2579,-0.2618,-0.2691,-0.2737,-0.2801,-0.2825,-0.2853,-0.2862,-0.2869,-0.2851,-0.283,-0.2835,-0.2804,-0.2785,-0.2783,-0.271,-0.2686,-0.2522,-0.252,-0.2493,-0.2738,-0.2738,-0.2738,0,-0.2279,-0.2383,-0.243,-0.2463,-0.2577,-0.2608,-0.2662,-0.2735,-0.2765,-0.2835,-0.2848,-0.2883,-0.2868,-0.2864,-0.2821,-0.2825,-0.2789,-0.2791,-0.2718,-0.2713,-0.2577,-0.2559,-0.2535,-0.2779,-0.2779,-0.2779,-0.2779,0,-0.2249,-0.2285,-0.2407,-0.2432,-0.2493,-0.2578,-0.2627,-0.2693,-0.2755,-0.2774,-0.2844,-0.2844,-0.2868,-0.2853,-0.2831,-0.2764,-0.2795,-0.2717,-0.2702,-0.2596,-0.2581,-0.253,-0.2546,-0.2777,-0.2777,-0.2778,-0.2778,0,-0.2162,-0.2239,-0.2305,-0.2427,-0.2461,-0.25,-0.2593,-0.2618,-0.2696,-0.2717,-0.273,-0.2792,-0.2781,-0.2799,-0.2777,-0.2745,-0.2658,-0.2682,-0.2544,-0.2513,-0.2425,-0.245,-0.2391,-0.2326,-0.2593,-0.2591,-0.259,0,-0.212,-0.2146,-0.2277,-0.2302,-0.2351,-0.242,-0.2451,-0.2563,-0.2581,-0.2664,-0.2651,-0.2682,-0.2679,-0.2652,-0.2629,-0.26,-0.2581,-0.2445,-0.2439,-0.24,-0.2417,-0.243,-0.2381,-0.2276,-0.2273,-0.227,-0.2267,0,-0.2036,-0.2084,-0.214,-0.2201,-0.2241,-0.2289,-0.2344,-0.2354,-0.2457,-0.2483,-0.2497,-0.2515,-0.2532,-0.2464,-0.2454,-0.241,-0.2375,-0.2382,-0.2376,-0.2196,-0.2172,-0.2107,-0.2324,-0.224,-0.2243,-0.2245,-0.2246,-0.2247,-0.195,-0.1974,-0.2039,-0.2087,-0.2123,-0.2124,-0.2106,-0.2165,-0.2178,-0.2194,-0.2295,-0.2297,-0.2303,-0.2286,-0.2252,-0.2136,-0.2206,-0.2054,-0.2092,-0.2114,-0.2038,-0.2192,-0.2081,-0.2083,-0.2084,-0.2086,-0.2087,0,-0.1834,-0.1876,-0.1913,-0.1951,-0.1919,-0.1989,-0.1996,-0.1947,-0.1912,-0.1996,-0.2013,-0.2056,-0.1992,-0.2012,-0.1945,-0.1867,-0.1822,-0.1812,-0.1792,-0.1759,-0.1903,-0.1876,-0.1673,-0.1673,-0.1673,-0.1673,-0.1673,-0.1673,-0.1769,-0.1771,-0.1807,-0.1733,-0.1736,-0.1643,-0.1611,-0.1579,-0.1604,-0.1613,-0.1682,-0.1801,-0.1846,-0.193,-0.1808,-0.1715,-0.1674,-0.1612,-0.1665,-0.1766,-0.1792,-0.1816,-0.1794,-0.1577,-0.1577,-0.1427,-0.1426,-0.1426]},{"header":{"parameterUnit":"m.s-1","parameterCategory":2,"la1":30.2991,"la2":30.254,"lo1":-89.0895,"lo2":-89.0444,"dy":0.0017,"dx":0.0017,"nx":28,"ny":28,"refTime":"2025-03-09T21:00:00:Z","depth":"0","parameterNumber":3,"parameterNumberName":"V-component_of_CURRENTS"},"data":[0,0,0,0,0,0,0,0,0,0,0,0,0,0,0,0,0,0,0,0,0,0,0,0,0,0,0,0,0,0,0,0,0,0,0,0,0,0,0,0,0,0,0,0,0,0,0,0,0,0,0,0,0,0,0,0,0,0,-0.051,-0.0509,0,-0.0439,-0.0438,-0.0437,-0.0392,-0.0392,-0.0391,-0.0391,-0.0291,-0.0288,-0.0286,0,0,0,0,0,0,0,0,0,0,0,0,0,-0.0564,-0.0563,-0.051,-0.0509,-0.0508,-0.0439,-0.0438,-0.0437,-0.0392,-0.0392,-0.0391,-0.0391,-0.0292,-0.0289,-0.0286,0,0,0,0,0,0,0,0,0,0,0,0,0,-0.0521,-0.0563,-0.051,-0.0478,-0.0474,-0.0439,-0.0438,-0.0437,-0.0392,-0.0392,-0.0391,-0.0391,-0.0293,-0.0289,-0.0285,-0.027,0,0,-0.0274,-0.0273,0,0,0,0,0,0,0,0,-0.0524,-0.0519,-0.0483,-0.048,-0.0476,-0.0424,-0.042,-0.038,-0.0392,-0.0423,-0.0391,-0.0391,-0.0333,-0.0326,-0.0314,-0.0265,-0.0261,-0.0274,-0.0272,-0.027,-0.0269,0,0,0,0,0,0,0,-0.0527,-0.0522,-0.0481,-0.0482,-0.0478,-0.0452,-0.0446,-0.0412,-0.038,-0.042,-0.0417,-0.0409,-0.0331,-0.0317,-0.0311,-0.026,-0.0274,-0.0271,-0.0269,-0.0267,-0.0172,-0.0171,0,0,0,0,0,0,-0.0539,-0.0525,-0.0484,-0.0479,-0.05,-0.0452,-0.0445,-0.0441,-0.0381,-0.0372,-0.041,-0.0408,-0.0324,-0.0315,-0.0307,-0.0279,-0.027,-0.0267,-0.0265,-0.0172,-0.0171,-0.0171,0,0,0,0,0,0,-0.054,-0.0536,-0.0487,-0.05,-0.0492,-0.0451,-0.0447,-0.044,-0.0424,-0.0374,-0.0364,-0.0402,-0.0323,-0.0312,-0.0282,-0.0275,-0.0265,-0.0262,-0.0172,-0.0172,-0.0171,-0.0226,0,0,0,0,0,0,-0.0542,-0.0537,-0.0542,-0.0502,-0.0492,-0.047,-0.0447,-0.0439,-0.042,-0.0417,-0.0363,-0.0354,-0.0322,-0.0288,-0.0278,-0.027,-0.0259,-0.0173,-0.0172,-0.0171,-0.0225,-0.0228,-0.023,0,0,0,0,0,-0.0544,-0.0548,-0.0542,-0.0537,-0.0499,-0.047,-0.0463,-0.0432,-0.042,-0.0416,-0.0383,-0.0355,-0.0276,-0.0285,-0.0274,-0.0264,-0.0173,-0.0172,-0.0171,-0.0224,-0.0227,-0.023,0,0,0,0,0,0,-0.0566,-0.0543,-0.0535,-0.0531,-0.0506,-0.0463,-0.0455,-0.0435,-0.0406,-0.0402,-0.0356,-0.0345,-0.0314,-0.0282,-0.0292,-0.0233,-0.0217,-0.0215,-0.0261,-0.0264,-0.0266,-0.0271,-0.0256,0,0,0,0,0,-0.0577,-0.0578,-0.0547,-0.0543,-0.0533,-0.0496,-0.0482,-0.0461,-0.0429,-0.0415,-0.0381,-0.034,-0.0302,-0.0279,-0.0244,-0.0215,-0.0175,-0.0198,-0.0201,-0.0204,-0.0199,-0.0138,-0.0134,-0.0169,-0.0169,-0.0169,0,0,-0.0584,-0.0571,-0.0571,-0.0548,-0.0526,-0.0519,-0.0486,-0.0466,-0.0457,-0.0409,-0.0389,-0.0351,-0.0297,-0.0266,-0.0248,-0.0238,-0.0174,-0.0203,-0.0206,-0.0199,-0.0136,-0.0133,-0.013,-0.0168,-0.0168,-0.0168,0,0,-0.0601,-0.0587,-0.0597,-0.0582,-0.0557,-0.0534,-0.0532,-0.0495,-0.0475,-0.0455,-0.0413,-0.0372,-0.0325,-0.0278,-0.0249,-0.0242,-0.0193,-0.023,-0.0243,-0.0184,-0.0181,-0.0177,-0.013,-0.0122,-0.0228,-0.0228,-0.0228,0,-0.0613,-0.0621,-0.0593,-0.0597,-0.0588,-0.0546,-0.0551,-0.0524,-0.0483,-0.0462,-0.0457,-0.0368,-0.0327,-0.0269,-0.0267,-0.0248,-0.0212,-0.0239,-0.0188,-0.0184,-0.018,-0.0132,-0.0122,-0.023,-0.023,-0.023,-0.023,0,-0.0634,-0.0644,-0.0645,-0.0642,-0.0626,-0.0621,-0.0584,-0.0566,-0.0541,-0.0508,-0.0455,-0.0399,-0.0342,-0.0321,-0.0293,-0.0235,-0.022,-0.0204,-0.0185,-0.018,-0.013,-0.0119,-0.0234,-0.0233,-0.0232,-0.0232,0,0,-0.0651,-0.0663,-0.0663,-0.068,-0.0651,-0.0644,-0.0623,-0.0588,-0.057,-0.0524,-0.049,-0.042,-0.038,-0.0343,-0.0294,-0.0241,-0.0184,-0.0214,-0.021,-0.0176,-0.0061,-0.0021,-0.0005,-0.0162,-0.016,-0.0159,-0.0042,0,-0.0678,-0.0718,-0.07,-0.0726,-0.0743,-0.0697,-0.0683,-0.0641,-0.0598,-0.0554,-0.0473,-0.0427,-0.0389,-0.0362,-0.0301,-0.0211,-0.0156,-0.0217,-0.0063,-0.0058,-0.0029,0.001,0.0027,0.0135,-0.0031,-0.0029,-0.0028,0,-0.0702,-0.0731,-0.0771,-0.0786,-0.0784,-0.0785,-0.0748,-0.0727,-0.0643,-0.0606,-0.0532,-0.0468,-0.0372,-0.0352,-0.0191,-0.0233,-0.0151,-0.0085,-0.0079,-0.0011,0.0003,0.0107,0.0162,0.0314,-0.001,-0.0012,-0.0013,0,-0.0744,-0.0774,-0.0816,-0.082,-0.0824,-0.0822,-0.081,-0.0743,-0.072,-0.0631,-0.0602,-0.0481,-0.0422,-0.03,-0.0158,-0.0172,0.0015,0.0015,0.013,0.0133,0.0195,0.0201,0.0411,0.0128,0.0128,0.0128,0.0127,0,-0.0783,-0.0814,-0.0846,-0.0871,-0.0909,-0.0876,-0.0878,-0.0844,-0.0777,-0.0745,-0.0633,-0.0582,-0.0407,-0.0279,-0.0155,0.003,0.0024,0.0144,0.0176,0.0175,0.0178,0.0351,0.0399,0.0132,0.0131,0.013,0.013,0,-0.0823,-0.0842,-0.0902,-0.093,-0.0938,-0.0963,-0.0948,-0.0937,-0.0867,-0.082,-0.0793,-0.0645,-0.0476,-0.0293,-0.0084,0.0033,0.0294,0.0264,0.0248,0.0276,0.0517,0.0559,0.0793,0.0863,0.0413,0.0415,0.0416,0,-0.0843,-0.0885,-0.0959,-0.0998,-0.1016,-0.1041,-0.1048,-0.0995,-0.0976,-0.086,-0.0842,-0.0667,-0.0541,-0.0212,0.0032,0.028,0.0379,0.0438,0.0421,0.0556,0.0627,0.0656,0.0698,0.0479,0.0481,0.0482,0.0483,0,-0.0892,-0.0927,-0.0985,-0.1076,-0.1113,-0.114,-0.1146,-0.1146,-0.1063,-0.1011,-0.091,-0.0797,-0.0465,-0.0168,0.017,0.0317,0.0546,0.0478,0.0634,0.072,0.075,0.0822,0.0364,0.0497,0.0496,0.0495,0.0494,0.0494,-0.0923,-0.0989,-0.1075,-0.1153,-0.1196,-0.1225,-0.1237,-0.1222,-0.1192,-0.1094,-0.098,-0.0787,-0.0338,0.0143,0.0326,0.0724,0.0679,0.083,0.0876,0.0898,0.096,0.0529,0.0685,0.0685,0.0685,0.0684,0.0684,0,-0.0961,-0.1047,-0.1137,-0.1226,-0.1271,-0.1274,-0.1285,-0.1273,-0.1242,-0.1127,-0.101,-0.0543,-0.0093,0.0335,0.0896,0.1112,0.1146,0.1215,0.1267,0.1295,0.0942,0.0939,0.1138,0.1137,0.1137,0.1137,0.1137,0.1137,-0.0988,-0.1103,-0.1165,-0.1268,-0.131,-0.1334,-0.1334,-0.1315,-0.1237,-0.1035,-0.079,-0.0599,0.0032,0.0931,0.1454,0.1502,0.1659,0.1649,0.1737,0.1498,0.1466,0.1435,0.1448,0.1749,0.175,0.2069,0.2072,0.2075]}],[{"header":{"parameterUnit":"m.s-1","parameterCategory":2,"la1":30.2991,"la2":30.254,"lo1":-89.0895,"lo2":-89.0444,"dy":0.0017,"dx":0.0017,"nx":28,"ny":28,"refTime":"2025-03-09T21:00:00:Z","depth":"2","parameterNumber":2,"parameterNumberName":"U-component_of_CURRENTS"},"data":[0,0,0,0,0,0,0,0,0,0,0,0,0,0,0,0,0,0,0,0,0,0,0,0,0,0,0,0,0,0,0,0,0,0,0,0,0,0,0,0,0,0,0,0,0,0,0,0,0,0,0,0,0,0,0,0,0,0,-0.2108,-0.2108,0,-0.2111,-0.2111,-0.2111,-0.21,-0.21,-0.21,-0.21,-0.2102,-0.2102,-0.2102,0,0,0,0,0,0,0,0,0,0,0,0,0,-0.2067,-0.2068,-0.2108,-0.2108,-0.2109,-0.2111,-0.2111,-0.2111,-0.21,-0.21,-0.21,-0.21,-0.2102,-0.2102,-0.2102,0,0,0,0,0,0,0,0,0,0,0,0,0,-0.2075,-0.2068,-0.2107,-0.2107,-0.2107,-0.2111,-0.2111,-0.211,-0.21,-0.21,-0.21,-0.21,-0.2102,-0.2102,-0.2102,-0.2099,0,0,-0.2101,-0.2101,0,0,0,0,0,0,0,0,-0.2074,-0.2076,-0.2106,-0.2107,-0.2107,-0.2109,-0.2098,-0.2108,-0.21,-0.2098,-0.21,-0.21,-0.2107,-0.2106,-0.21,-0.2099,-0.2099,-0.2101,-0.2101,-0.2101,-0.2101,0,0,0,0,0,0,0,-0.2074,-0.2076,-0.2104,-0.2107,-0.2108,-0.2099,-0.2099,-0.2099,-0.2098,-0.2098,-0.2098,-0.2106,-0.2106,-0.21,-0.21,-0.2099,-0.2101,-0.2101,-0.2101,-0.2101,-0.2137,-0.2138,0,0,0,0,0,0,-0.2084,-0.2075,-0.2104,-0.2105,-0.2096,-0.21,-0.21,-0.2105,-0.2098,-0.2098,-0.2106,-0.2105,-0.21,-0.21,-0.21,-0.2149,-0.2101,-0.2101,-0.2101,-0.2136,-0.2137,-0.2138,0,0,0,0,0,0,-0.2083,-0.2086,-0.2104,-0.2094,-0.2096,-0.2101,-0.2105,-0.2105,-0.2107,-0.2105,-0.2104,-0.211,-0.21,-0.21,-0.2117,-0.2147,-0.2101,-0.2101,-0.2135,-0.2136,-0.2137,-0.2212,0,0,0,0,0,0,-0.2082,-0.2086,-0.2093,-0.2095,-0.2097,-0.2118,-0.2106,-0.2105,-0.2113,-0.2112,-0.2108,-0.2108,-0.2101,-0.2118,-0.2117,-0.2146,-0.2101,-0.2133,-0.2135,-0.2137,-0.2208,-0.2216,-0.2222,0,0,0,0,0,-0.208,-0.2078,-0.2093,-0.2097,-0.2106,-0.2119,-0.2119,-0.2119,-0.2113,-0.2119,-0.2121,-0.2108,-0.2129,-0.2119,-0.2118,-0.2147,-0.2132,-0.2135,-0.2137,-0.2205,-0.2214,-0.2222,0,0,0,0,0,0,-0.2053,-0.2078,-0.2093,-0.2097,-0.2119,-0.2119,-0.2118,-0.2124,-0.2128,-0.213,-0.2121,-0.2121,-0.215,-0.2134,-0.2122,-0.2161,-0.2128,-0.2131,-0.218,-0.2189,-0.2196,-0.2199,-0.2101,0,0,0,0,0,-0.2057,-0.2065,-0.2093,-0.2097,-0.2107,-0.2117,-0.2121,-0.2133,-0.2138,-0.2139,-0.214,-0.2142,-0.2156,-0.2161,-0.2166,-0.2184,-0.2162,-0.2201,-0.2208,-0.2214,-0.2216,-0.2216,-0.2223,-0.2145,-0.2145,-0.2145,0,0,-0.2048,-0.2062,-0.2067,-0.2093,-0.2101,-0.2129,-0.2118,-0.2133,-0.2162,-0.2139,-0.2166,-0.2169,-0.2167,-0.2195,-0.2205,-0.2186,-0.2224,-0.2217,-0.2222,-0.2221,-0.2219,-0.2226,-0.2233,-0.2147,-0.2146,-0.2146,0,0,-0.2036,-0.2047,-0.206,-0.2084,-0.2117,-0.2132,-0.2143,-0.2163,-0.2177,-0.221,-0.2206,-0.2227,-0.2236,-0.2248,-0.2253,-0.2299,-0.2264,-0.2297,-0.2334,-0.2335,-0.2341,-0.2346,-0.2325,-0.2328,-0.2298,-0.2298,-0.2298,0,-0.2032,-0.2049,-0.2065,-0.209,-0.2113,-0.2138,-0.2168,-0.219,-0.2218,-0.2235,-0.223,-0.2263,-0.2265,-0.2303,-0.2324,-0.2317,-0.2298,-0.2306,-0.2344,-0.2349,-0.2353,-0.233,-0.2332,-0.2302,-0.2301,-0.2301,-0.23,0,-0.2034,-0.2062,-0.2065,-0.2115,-0.2144,-0.2167,-0.2216,-0.2244,-0.2265,-0.2292,-0.2335,-0.2342,-0.2359,-0.2369,-0.2363,-0.24,-0.237,-0.2357,-0.2324,-0.2366,-0.2338,-0.2339,-0.2307,-0.2306,-0.2305,-0.2304,0,0,-0.1982,-0.2059,-0.2059,-0.2098,-0.2161,-0.2183,-0.224,-0.2295,-0.2326,-0.2366,-0.2397,-0.2441,-0.2442,-0.2447,-0.2444,-0.2449,-0.2469,-0.2418,-0.2416,-0.2399,-0.2451,-0.2407,-0.2403,-0.2461,-0.2462,-0.2462,-0.2418,0,-0.1982,-0.2038,-0.2076,-0.2136,-0.2172,-0.2225,-0.2275,-0.2335,-0.2372,-0.2408,-0.2439,-0.2465,-0.2473,-0.2476,-0.2493,-0.2471,-0.2475,-0.2481,-0.2411,-0.2408,-0.2367,-0.2404,-0.221,-0.2153,-0.2418,-0.2418,-0.2419,0,-0.1964,-0.201,-0.2069,-0.2162,-0.218,-0.2222,-0.2296,-0.2349,-0.2418,-0.2444,-0.2485,-0.2498,-0.253,-0.2516,-0.252,-0.252,-0.2496,-0.2477,-0.2474,-0.2407,-0.2367,-0.2155,-0.2144,-0.242,-0.2419,-0.2419,-0.2419,0,-0.1909,-0.1999,-0.2045,-0.2075,-0.2184,-0.2217,-0.2274,-0.2354,-0.2389,-0.2455,-0.247,-0.252,-0.2523,-0.2524,-0.2511,-0.2507,-0.2493,-0.2478,-0.2417,-0.2412,-0.222,-0.2198,-0.2477,-0.2477,-0.2477,-0.2478,-0.2478,0,-0.1882,-0.1917,-0.2024,-0.2047,-0.2106,-0.2193,-0.2245,-0.2309,-0.2376,-0.2408,-0.2476,-0.2488,-0.2524,-0.2526,-0.2513,-0.2471,-0.2497,-0.2428,-0.2405,-0.224,-0.2221,-0.243,-0.2426,-0.2476,-0.2476,-0.2477,-0.2477,0,-0.181,-0.1879,-0.1938,-0.2049,-0.208,-0.2121,-0.2218,-0.2245,-0.2328,-0.2362,-0.2377,-0.2452,-0.2461,-0.2487,-0.2475,-0.2455,-0.2427,-0.2404,-0.2205,-0.2161,-0.234,-0.2339,-0.2321,-0.2319,-0.2318,-0.2317,-0.2315,0,-0.178,-0.1801,-0.1914,-0.1939,-0.1984,-0.2054,-0.209,-0.2199,-0.2225,-0.2327,-0.2324,-0.2371,-0.2381,-0.2371,-0.2348,-0.2318,-0.238,-0.2114,-0.2087,-0.2348,-0.2327,-0.2329,-0.2331,-0.1849,-0.1845,-0.1841,-0.1838,0,-0.171,-0.1748,-0.1795,-0.1852,-0.1891,-0.1939,-0.2003,-0.2017,-0.2131,-0.2163,-0.2201,-0.2222,-0.225,-0.2149,-0.214,-0.2092,-0.211,-0.2035,-0.2343,-0.1939,-0.1905,-0.1885,-0.1901,-0.1803,-0.1806,-0.1809,-0.1811,-0.1812,-0.1639,-0.1657,-0.171,-0.1752,-0.1789,-0.18,-0.1792,-0.1856,-0.188,-0.1912,-0.2017,-0.2,-0.2018,-0.1918,-0.1843,-0.1786,-0.1931,-0.1823,-0.1833,-0.1848,-0.1822,-0.1789,-0.1658,-0.1661,-0.1663,-0.1665,-0.1667,0,-0.1544,-0.1573,-0.1604,-0.1639,-0.1615,-0.1681,-0.1703,-0.1667,-0.1647,-0.1718,-0.1742,-0.1607,-0.1559,-0.1587,-0.146,-0.1448,-0.1417,-0.137,-0.1317,-0.1352,-0.1383,-0.1332,-0.1039,-0.1037,-0.1036,-0.1034,0,0,-0.1494,-0.1484,-0.1509,-0.1446,-0.1458,-0.1388,-0.1369,-0.1346,-0.1363,-0.1329,-0.1332,-0.1475,-0.1536,-0.1289,-0.1233,-0.1117,-0.1217,-0.1055,-0.1556,-0.1527,-0.1556,-0.1639,-0.16,0,0,0,0,0]},{"header":{"parameterUnit":"m.s-1","parameterCategory":2,"la1":30.2991,"la2":30.254,"lo1":-89.0895,"lo2":-89.0444,"dy":0.0017,"dx":0.0017,"nx":28,"ny":28,"refTime":"2025-03-09T21:00:00:Z","depth":"2","parameterNumber":3,"parameterNumberName":"V-component_of_CURRENTS"},"data":[0,0,0,0,0,0,0,0,0,0,0,0,0,0,0,0,0,0,0,0,0,0,0,0,0,0,0,0,0,0,0,0,0,0,0,0,0,0,0,0,0,0,0,0,0,0,0,0,0,0,0,0,0,0,0,0,0,0,-0.0083,-0.0082,0,-0.0017,-0.0016,-0.0016,0.0017,0.0017,0.0016,0.0016,0.0091,0.0093,0.0095,0,0,0,0,0,0,0,0,0,0,0,0,0,-0.0123,-0.0122,-0.0083,-0.0082,-0.0081,-0.0017,-0.0016,-0.0015,0.0017,0.0017,0.0016,0.0016,0.009,0.0093,0.0095,0,0,0,0,0,0,0,0,0,0,0,0,0,-0.0085,-0.0122,-0.0083,-0.0058,-0.0055,-0.0018,-0.0016,-0.0015,0.0017,0.0017,0.0016,0.0016,0.0089,0.0092,0.0095,0.0117,0,0,0.0105,0.0106,0,0,0,0,0,0,0,0,-0.0088,-0.0084,-0.0063,-0.006,-0.0057,-0.0009,-0.0003,0.0029,0.0017,-0.001,0.0016,0.0016,0.0058,0.0063,0.0077,0.0121,0.0124,0.0105,0.0107,0.0108,0.0109,0,0,0,0,0,0,0,-0.009,-0.0086,-0.0056,-0.0062,-0.0058,-0.0031,-0.0026,0.0004,0.0025,-0.0007,-0.0005,0.0001,0.0059,0.0074,0.0079,0.0125,0.0105,0.0108,0.011,0.0111,0.0191,0.0192,0,0,0,0,0,0,-0.0103,-0.0089,-0.0058,-0.0054,-0.0074,-0.003,-0.0025,-0.0024,0.0024,0.0031,0.0001,0.0002,0.0069,0.0076,0.0082,0.0096,0.0108,0.0111,0.0113,0.0191,0.0191,0.0192,0,0,0,0,0,0,-0.0104,-0.0101,-0.0061,-0.007,-0.0063,-0.003,-0.0028,-0.0022,-0.0011,0.003,0.0038,0.0005,0.0069,0.0078,0.0102,0.01,0.0113,0.0116,0.0191,0.0191,0.0192,0.0134,0,0,0,0,0,0,-0.0106,-0.0102,-0.011,-0.0072,-0.0063,-0.0049,-0.0028,-0.0021,-0.0008,-0.0006,0.0036,0.0043,0.007,0.0097,0.0105,0.0104,0.0118,0.019,0.0191,0.0191,0.0136,0.0133,0.013,0,0,0,0,0,-0.0108,-0.0115,-0.0111,-0.0107,-0.0074,-0.0049,-0.0043,-0.0018,-0.0008,-0.0008,0.0022,0.0042,0.0106,0.0099,0.0109,0.0109,0.019,0.0191,0.0191,0.0137,0.0133,0.013,0,0,0,0,0,0,-0.0138,-0.0111,-0.0106,-0.0106,-0.0086,-0.0044,-0.0041,-0.0022,0.0002,0.0001,0.0043,0.0052,0.0074,0.0102,0.0093,0.0136,0.0153,0.0155,0.0108,0.0105,0.0102,0.0088,0.012,0,0,0,0,0,-0.0149,-0.0147,-0.0119,-0.012,-0.0113,-0.0079,-0.0067,-0.0052,-0.0023,-0.0012,0.0018,0.0053,0.0086,0.0101,0.0131,0.0153,0.0185,0.0162,0.0159,0.0156,0.0153,0.0202,0.0202,0.0194,0.0194,0.0194,0,0,-0.0162,-0.0147,-0.0146,-0.0126,-0.0108,-0.0108,-0.0072,-0.0061,-0.0058,-0.0008,0.0004,0.0041,0.0089,0.0111,0.0124,0.0133,0.0174,0.0157,0.0154,0.0152,0.0202,0.0203,0.0204,0.0194,0.0194,0.0194,0,0,-0.0187,-0.0173,-0.0184,-0.0171,-0.0152,-0.0131,-0.0132,-0.0098,-0.0081,-0.0065,-0.0025,0.0011,0.0053,0.0092,0.0117,0.0119,0.0156,0.0129,0.0104,0.0151,0.0152,0.0153,0.0185,0.019,0.0128,0.0128,0.0128,0,-0.0208,-0.0216,-0.0183,-0.019,-0.0188,-0.0147,-0.0163,-0.0135,-0.0099,-0.0082,-0.0073,0.0008,0.0044,0.0091,0.0089,0.0111,0.0138,0.0109,0.0146,0.0148,0.015,0.0183,0.0189,0.0126,0.0126,0.0126,0.0127,0,-0.0237,-0.025,-0.0253,-0.0253,-0.0244,-0.0248,-0.0214,-0.02,-0.0176,-0.0144,-0.0099,-0.0041,0.0009,0.003,0.0057,0.0097,0.0111,0.0133,0.0149,0.0147,0.0182,0.0189,0.0122,0.0123,0.0124,0.0124,0,0,-0.0268,-0.0277,-0.0278,-0.03,-0.0281,-0.0279,-0.0269,-0.0244,-0.0233,-0.0186,-0.0161,-0.0094,-0.0052,-0.002,0.0032,0.0075,0.0111,0.0103,0.0106,0.0125,0.0204,0.0234,0.0245,0.0138,0.0139,0.014,0.0219,0,-0.0307,-0.0349,-0.0332,-0.0371,-0.0395,-0.0356,-0.0351,-0.0319,-0.0278,-0.0241,-0.016,-0.0119,-0.0072,-0.0047,0.0004,0.0088,0.0128,0.0087,0.0213,0.0216,0.0236,0.0254,0.022,0.0291,0.0226,0.0228,0.0228,0,-0.0341,-0.0369,-0.042,-0.0446,-0.045,-0.0459,-0.0441,-0.0428,-0.0355,-0.0321,-0.0253,-0.0185,-0.0103,-0.007,0.007,0.004,0.0111,0.0174,0.0179,0.0233,0.026,0.0287,0.0306,0.0241,0.024,0.0239,0.0238,0,-0.0389,-0.0428,-0.0476,-0.0483,-0.0499,-0.0507,-0.0506,-0.0454,-0.0441,-0.0363,-0.0342,-0.0229,-0.0175,-0.0064,0.0073,0.007,0.0221,0.0236,0.0331,0.0333,0.0343,0.0345,0.0324,0.0324,0.0324,0.0324,0.0324,0,-0.0437,-0.0475,-0.0505,-0.0533,-0.0586,-0.0566,-0.0588,-0.0562,-0.0513,-0.0496,-0.0387,-0.0345,-0.0172,-0.0058,0.0059,0.0221,0.0215,0.0331,0.0362,0.0322,0.0321,0.0309,0.0306,0.0327,0.0326,0.0326,0.0325,0,-0.0482,-0.0499,-0.0565,-0.0602,-0.0616,-0.0652,-0.0664,-0.0665,-0.0612,-0.0584,-0.0562,-0.0426,-0.0275,-0.0098,0.0091,0.0203,0.0353,0.0407,0.0343,0.0366,0.0433,0.0426,0.052,0.0522,0.0524,0.0525,0.0526,0,-0.0508,-0.0546,-0.0624,-0.0671,-0.0692,-0.0735,-0.0757,-0.0724,-0.0718,-0.0633,-0.0623,-0.0471,-0.0355,-0.0062,0.0161,0.0384,0.0387,0.0481,0.0477,0.0435,0.0456,0.0446,0.0438,0.0462,0.0462,0.0463,0.0463,0,-0.0561,-0.0589,-0.0645,-0.0748,-0.0797,-0.0842,-0.0868,-0.0878,-0.082,-0.0782,-0.0701,-0.06,-0.0311,-0.0061,0.0239,0.0365,0.0447,0.0497,0.0483,0.0418,0.0387,0.0404,0.0397,0.0467,0.0466,0.0466,0.0466,0.0466,-0.0595,-0.0657,-0.0735,-0.0828,-0.0884,-0.0932,-0.0959,-0.0957,-0.0945,-0.0867,-0.0768,-0.0598,-0.0341,0.008,0.0294,0.0502,0.05,0.0555,0.0551,0.0546,0.0526,0.05,0.0596,0.0596,0.0597,0.0597,0.0597,0,-0.064,-0.0714,-0.0809,-0.091,-0.0968,-0.0984,-0.1015,-0.1011,-0.0992,-0.0898,-0.0795,-0.0516,-0.0223,0.0045,0.0376,0.0574,0.0556,0.0602,0.0538,0.0534,0.053,0.0506,0.0572,0.0573,0.0573,0.0574,0,0,-0.067,-0.0771,-0.083,-0.0953,-0.1012,-0.1058,-0.1069,-0.1052,-0.0989,-0.0899,-0.0766,-0.0569,-0.0231,-0.0002,0.0246,0.0418,0.0421,0.0432,0.0431,0.0321,0.0315,0.0483,0.044,0,0,0,0,0]}],[{"header":{"parameterUnit":"m.s-1","parameterCategory":2,"la1":30.2991,"la2":30.254,"lo1":-89.0895,"lo2":-89.0444,"dy":0.0017,"dx":0.0017,"nx":28,"ny":28,"refTime":"2025-03-09T21:00:00:Z","depth":"4","parameterNumber":2,"parameterNumberName":"U-component_of_CURRENTS"},"data":[0,0,0,0,0,0,0,0,0,0,0,0,0,0,0,0,0,0,0,0,0,0,0,0,0,0,0,0,0,0,0,0,0,0,0,0,0,0,0,0,0,0,0,0,0,0,0,0,0,0,0,0,0,0,0,0,0,0,-0.1197,-0.1197,0,-0.1248,-0.1248,-0.1249,-0.1293,-0.1293,-0.1294,-0.1294,-0.1319,-0.1319,-0.1319,0,0,0,0,0,0,0,0,0,0,0,0,0,-0.1144,-0.1145,-0.1197,-0.1197,-0.1198,-0.1248,-0.1248,-0.1249,-0.1293,-0.1293,-0.1294,-0.1294,-0.1319,-0.1319,-0.1319,0,0,0,0,0,0,0,0,0,0,0,0,0,-0.1178,-0.1145,-0.1196,-0.1225,-0.1228,-0.1248,-0.1249,-0.1249,-0.1292,-0.1293,-0.1294,-0.1295,-0.1319,-0.1319,-0.1319,-0.1308,0,0,-0.1321,-0.1321,0,0,0,0,0,0,0,0,-0.1176,-0.118,-0.122,-0.1223,-0.1227,-0.1264,-0.1239,-0.1268,-0.1292,-0.1268,-0.1294,-0.1295,-0.1298,-0.13,-0.1309,-0.1309,-0.131,-0.1321,-0.1321,-0.1321,-0.1321,0,0,0,0,0,0,0,-0.1174,-0.1178,-0.1217,-0.1221,-0.1225,-0.1238,-0.1244,-0.1245,-0.1278,-0.1271,-0.1274,-0.1279,-0.1299,-0.1308,-0.1309,-0.131,-0.1321,-0.1321,-0.1321,-0.1321,-0.1377,-0.1378,0,0,0,0,0,0,-0.1166,-0.1176,-0.1215,-0.1219,-0.1203,-0.1239,-0.1245,-0.1252,-0.1279,-0.1284,-0.1278,-0.1281,-0.1307,-0.1309,-0.131,-0.1363,-0.1321,-0.1321,-0.1321,-0.1376,-0.1378,-0.1379,0,0,0,0,0,0,-0.1165,-0.1169,-0.1213,-0.1198,-0.1205,-0.1239,-0.1246,-0.1252,-0.1287,-0.1285,-0.129,-0.131,-0.1308,-0.131,-0.1331,-0.1362,-0.1321,-0.1322,-0.1375,-0.1376,-0.1378,-0.1427,0,0,0,0,0,0,-0.1163,-0.1168,-0.1181,-0.1198,-0.1205,-0.1245,-0.1246,-0.1253,-0.1288,-0.1292,-0.1313,-0.1314,-0.1309,-0.1331,-0.1332,-0.1362,-0.1322,-0.1373,-0.1375,-0.1378,-0.1424,-0.143,-0.1436,0,0,0,0,0,-0.1161,-0.1173,-0.1181,-0.1187,-0.1218,-0.1246,-0.1252,-0.1278,-0.1289,-0.1311,-0.1321,-0.1315,-0.1347,-0.1332,-0.1333,-0.1363,-0.1372,-0.1375,-0.1377,-0.1421,-0.1429,-0.1436,0,0,0,0,0,0,-0.1162,-0.1179,-0.1189,-0.1207,-0.1234,-0.1254,-0.1277,-0.1292,-0.1319,-0.1326,-0.1324,-0.1327,-0.1358,-0.1353,-0.1337,-0.1388,-0.1361,-0.1365,-0.1394,-0.1402,-0.1408,-0.1415,-0.1322,0,0,0,0,0,-0.1165,-0.1177,-0.12,-0.1218,-0.1234,-0.126,-0.1278,-0.1296,-0.1315,-0.133,-0.1345,-0.1357,-0.1366,-0.1379,-0.1385,-0.1409,-0.1413,-0.1432,-0.1438,-0.1443,-0.1451,-0.1475,-0.1484,-0.1388,-0.1388,-0.1388,0,0,-0.1172,-0.1181,-0.1191,-0.1219,-0.1242,-0.1271,-0.1274,-0.1309,-0.1336,-0.1325,-0.1372,-0.1377,-0.1376,-0.1405,-0.142,-0.1409,-0.1476,-0.1447,-0.1451,-0.1456,-0.1479,-0.1488,-0.1496,-0.139,-0.139,-0.139,0,0,-0.1182,-0.1201,-0.1216,-0.1241,-0.1276,-0.1293,-0.1309,-0.1346,-0.1369,-0.1403,-0.1404,-0.143,-0.1449,-0.1459,-0.1461,-0.1505,-0.1504,-0.1514,-0.1554,-0.1578,-0.1586,-0.1593,-0.1622,-0.1631,-0.1521,-0.1521,-0.1521,0,-0.119,-0.1209,-0.1227,-0.1251,-0.1276,-0.1306,-0.1337,-0.1363,-0.1403,-0.1423,-0.1426,-0.1472,-0.1474,-0.1505,-0.1524,-0.152,-0.1534,-0.1524,-0.1586,-0.1593,-0.1599,-0.1627,-0.1636,-0.1523,-0.1523,-0.1523,-0.1522,0,-0.1211,-0.1234,-0.1249,-0.1286,-0.1319,-0.135,-0.1387,-0.1427,-0.1456,-0.1476,-0.1525,-0.1533,-0.156,-0.1571,-0.156,-0.1611,-0.1608,-0.1587,-0.1566,-0.1612,-0.1638,-0.1647,-0.1527,-0.1526,-0.1525,-0.1525,0,0,-0.12,-0.1251,-0.1259,-0.1282,-0.134,-0.1366,-0.1419,-0.1468,-0.151,-0.1547,-0.1597,-0.1619,-0.1631,-0.1636,-0.1637,-0.1665,-0.1724,-0.1653,-0.1653,-0.168,-0.1789,-0.1659,-0.1656,-0.1716,-0.1717,-0.1718,-0.1794,0,-0.1211,-0.1247,-0.128,-0.1333,-0.1357,-0.141,-0.1457,-0.1508,-0.1554,-0.1612,-0.1631,-0.1674,-0.1653,-0.1679,-0.1701,-0.172,-0.1749,-0.1707,-0.1743,-0.1744,-0.1621,-0.1662,-0.1723,-0.18,-0.1802,-0.1804,-0.1805,0,-0.1218,-0.1239,-0.1281,-0.1348,-0.1369,-0.1414,-0.1502,-0.1549,-0.1627,-0.1664,-0.1711,-0.1732,-0.1782,-0.1756,-0.1811,-0.1787,-0.1795,-0.1806,-0.1808,-0.1674,-0.1629,-0.1743,-0.1821,-0.182,-0.1818,-0.1817,-0.1816,0,-0.1178,-0.1243,-0.1272,-0.1296,-0.1376,-0.142,-0.1477,-0.1564,-0.1615,-0.1706,-0.1757,-0.1803,-0.1844,-0.1861,-0.1873,-0.1855,-0.1932,-0.1902,-0.1795,-0.1787,-0.186,-0.1852,-0.1941,-0.1941,-0.1941,-0.1941,-0.194,0,-0.1156,-0.1188,-0.126,-0.1274,-0.1332,-0.1405,-0.1486,-0.155,-0.1653,-0.171,-0.1779,-0.1823,-0.1875,-0.1915,-0.191,-0.1876,-0.1956,-0.181,-0.1795,-0.188,-0.1873,-0.1867,-0.1858,-0.1943,-0.1943,-0.1942,-0.1942,0,-0.1102,-0.1148,-0.1187,-0.1273,-0.1309,-0.1353,-0.1487,-0.1544,-0.165,-0.1734,-0.1767,-0.1863,-0.1901,-0.1939,-0.198,-0.1912,-0.1901,-0.1869,-0.1979,-0.1968,-0.1737,-0.173,-0.1759,-0.1755,-0.1751,-0.1748,-0.1746,0,-0.108,-0.1084,-0.1168,-0.1198,-0.1242,-0.1328,-0.1388,-0.1519,-0.1579,-0.1733,-0.1757,-0.1848,-0.1888,-0.1848,-0.1889,-0.1877,-0.1844,-0.1838,-0.1764,-0.1735,-0.1719,-0.1716,-0.1713,-0.1741,-0.174,-0.1739,-0.1738,0,-0.1018,-0.1048,-0.1072,-0.1126,-0.1191,-0.1266,-0.1363,-0.1399,-0.1543,-0.1661,-0.1698,-0.1717,-0.1759,-0.1763,-0.177,-0.1753,-0.184,-0.1802,-0.1808,-0.1738,-0.1713,-0.17,-0.1701,-0.1726,-0.1728,-0.1729,-0.173,0,-0.0975,-0.0968,-0.0993,-0.104,-0.1122,-0.1172,-0.1242,-0.1312,-0.1386,-0.1555,-0.156,-0.1649,-0.174,-0.17,-0.1703,-0.1678,-0.1641,-0.1581,-0.1598,-0.1611,-0.1522,-0.1466,-0.1396,0,0,0,0,0,-0.0918,-0.0886,-0.0911,-0.0953,-0.1038,-0.1083,-0.1208,-0.1282,-0.1425,-0.141,-0.1482,-0.1507,-0.1513,-0.1557,-0.1497,-0.1628,-0.1645,-0.1551,-0.1584,-0.1661,-0.1674,-0.1579,0,0,0,0,0,0,-0.0871,-0.0869,-0.0862,-0.0872,-0.0894,-0.0976,-0.105,-0.115,-0.115,-0.1293,-0.1299,-0.1404,-0.1426,-0.1517,-0.146,-0.1473,-0.146,-0.161,-0.1606,-0.1653,-0.1665,-0.1676,-0.1583,0,0,0,0,0]},{"header":{"parameterUnit":"m.s-1","parameterCategory":2,"la1":30.2991,"la2":30.254,"lo1":-89.0895,"lo2":-89.0444,"dy":0.0017,"dx":0.0017,"nx":28,"ny":28,"refTime":"2025-03-09T21:00:00:Z","depth":"4","parameterNumber":3,"parameterNumberName":"V-component_of_CURRENTS"},"data":[0,0,0,0,0,0,0,0,0,0,0,0,0,0,0,0,0,0,0,0,0,0,0,0,0,0,0,0,0,0,0,0,0,0,0,0,0,0,0,0,0,0,0,0,0,0,0,0,0,0,0,0,0,0,0,0,0,0,0.0078,0.0079,0,0.0119,0.0119,0.012,0.0142,0.0142,0.0142,0.0142,0.0206,0.0207,0.0209,0,0,0,0,0,0,0,0,0,0,0,0,0,0.0059,0.0059,0.0078,0.0079,0.0079,0.0119,0.0119,0.012,0.0142,0.0142,0.0142,0.0142,0.0205,0.0207,0.0209,0,0,0,0,0,0,0,0,0,0,0,0,0,0.0081,0.0059,0.0078,0.0094,0.0096,0.0118,0.0119,0.012,0.0142,0.0142,0.0142,0.0142,0.0205,0.0207,0.021,0.0226,0,0,0.0218,0.0219,0,0,0,0,0,0,0,0,0.008,0.0082,0.0092,0.0093,0.0095,0.0124,0.0136,0.0156,0.0142,0.0125,0.0142,0.0142,0.018,0.0185,0.0193,0.0229,0.0232,0.0218,0.0219,0.022,0.0221,0,0,0,0,0,0,0,0.0078,0.008,0.0095,0.0092,0.0094,0.0113,0.0115,0.014,0.0154,0.0127,0.0128,0.0131,0.0182,0.0191,0.0195,0.0233,0.0218,0.022,0.0222,0.0223,0.0285,0.0285,0,0,0,0,0,0,0.0069,0.0079,0.0094,0.0096,0.0086,0.0113,0.0116,0.0116,0.0153,0.0158,0.0131,0.0132,0.0186,0.0192,0.0197,0.021,0.022,0.0223,0.0224,0.0285,0.0285,0.0285,0,0,0,0,0,0,0.0069,0.007,0.0092,0.0088,0.0092,0.0113,0.0113,0.0117,0.0126,0.0156,0.0162,0.0137,0.0187,0.0194,0.022,0.0213,0.0224,0.0226,0.0285,0.0285,0.0285,0.024,0,0,0,0,0,0,0.0068,0.007,0.0068,0.0087,0.0092,0.0099,0.0113,0.0117,0.0128,0.0129,0.0163,0.0168,0.0187,0.0216,0.0222,0.0216,0.0228,0.0285,0.0285,0.0285,0.0242,0.0239,0.0237,0,0,0,0,0,0.0067,0.0061,0.0068,0.007,0.0088,0.0099,0.0103,0.0118,0.0128,0.0128,0.0155,0.0167,0.0222,0.0218,0.0226,0.022,0.0285,0.0285,0.0285,0.0243,0.024,0.0237,0,0,0,0,0,0,0.0047,0.0063,0.0071,0.0069,0.0081,0.0102,0.0103,0.0118,0.0139,0.0142,0.0173,0.018,0.0199,0.022,0.0215,0.024,0.0254,0.0256,0.0219,0.0216,0.0214,0.02,0.0231,0,0,0,0,0,0.0043,0.0044,0.0061,0.0059,0.0063,0.0085,0.0092,0.0102,0.0123,0.0132,0.0156,0.0183,0.0206,0.0219,0.0242,0.0259,0.028,0.026,0.0257,0.0255,0.025,0.0276,0.0275,0.0286,0.0286,0.0286,0,0,0.0034,0.0043,0.0043,0.0055,0.0066,0.0062,0.0089,0.0095,0.0093,0.0137,0.0144,0.0175,0.0209,0.0225,0.0235,0.0241,0.0265,0.0255,0.0253,0.0249,0.0277,0.0275,0.0274,0.0286,0.0286,0.0286,0,0,0.0012,0.0024,0.0017,0.0023,0.0037,0.0047,0.0048,0.0068,0.0079,0.0094,0.0124,0.0153,0.0185,0.0208,0.0225,0.0225,0.025,0.0231,0.0207,0.0233,0.0232,0.0231,0.026,0.0262,0.023,0.0229,0.0229,0,0.0001,-0.0008,0.0016,0.0008,0.0004,0.0036,0.002,0.0037,0.0064,0.0073,0.0088,0.0144,0.0175,0.0198,0.0199,0.0217,0.0237,0.0213,0.0228,0.0228,0.0228,0.0258,0.0261,0.0227,0.0228,0.0228,0.0228,0,-0.0028,-0.0036,-0.0041,-0.0043,-0.0042,-0.005,-0.003,-0.0022,-0.0002,0.0019,0.0048,0.0098,0.013,0.0147,0.0174,0.0191,0.0207,0.022,0.0231,0.0224,0.0257,0.0261,0.0224,0.0225,0.0226,0.0226,0,0,-0.0054,-0.0061,-0.0063,-0.0081,-0.0073,-0.008,-0.008,-0.0073,-0.0074,-0.0031,-0.0026,0.0031,0.0067,0.0089,0.0131,0.016,0.0186,0.0188,0.019,0.0209,0.0245,0.0239,0.0243,0.0199,0.0199,0.02,0.0268,0,-0.0086,-0.0118,-0.0112,-0.0151,-0.017,-0.0151,-0.0159,-0.0144,-0.0117,-0.01,-0.0035,-0.001,0.0042,0.006,0.0098,0.0166,0.0194,0.0166,0.0256,0.0259,0.0248,0.0247,0.0201,0.0271,0.0272,0.0273,0.0273,0,-0.0118,-0.0138,-0.0179,-0.0214,-0.0221,-0.0239,-0.0251,-0.025,-0.0209,-0.0186,-0.0138,-0.0085,-0.0021,0.0016,0.0126,0.0106,0.0167,0.022,0.0224,0.0235,0.026,0.0282,0.0281,0.0281,0.028,0.0279,0.0279,0,-0.0152,-0.0189,-0.0228,-0.0238,-0.0263,-0.0283,-0.0295,-0.0275,-0.028,-0.0234,-0.0226,-0.014,-0.0097,-0.0008,0.0117,0.0119,0.0233,0.0248,0.03,0.0301,0.0306,0.0306,0.0309,0.0309,0.0309,0.0309,0.0308,0,-0.0187,-0.0222,-0.0249,-0.0271,-0.033,-0.0327,-0.037,-0.0363,-0.0348,-0.0352,-0.0269,-0.0246,-0.0102,-0.0011,0.0095,0.0215,0.0219,0.0294,0.0315,0.0287,0.0284,0.0309,0.0308,0.0311,0.0311,0.031,0.031,0,-0.0213,-0.0228,-0.0282,-0.0324,-0.0346,-0.0386,-0.0434,-0.0455,-0.0431,-0.0432,-0.042,-0.032,-0.0198,-0.0054,0.01,0.0182,0.0297,0.0334,0.0295,0.0314,0.0353,0.0349,0.0394,0.0395,0.0395,0.0395,0.0395,0,-0.0231,-0.0254,-0.0324,-0.037,-0.0395,-0.0453,-0.0493,-0.0497,-0.0512,-0.0474,-0.0473,-0.0363,-0.028,-0.0062,0.0086,0.0282,0.0307,0.0363,0.0357,0.0344,0.0361,0.0357,0.0353,0.0396,0.0396,0.0396,0.0396,0,-0.0261,-0.0279,-0.0319,-0.0413,-0.0475,-0.0544,-0.0593,-0.0612,-0.06,-0.0582,-0.0509,-0.0387,-0.0252,-0.007,0.0083,0.0222,0.0327,0.0366,0.0367,0.0361,0.0346,0.0362,0.0357,0.0397,0.0397,0.0396,0.0396,0,-0.0282,-0.0315,-0.0367,-0.0454,-0.0538,-0.0608,-0.0634,-0.0642,-0.0648,-0.0591,-0.0567,-0.0409,-0.031,-0.0102,0.0039,0.0178,0.021,0.025,0.0257,0.0257,0.0199,0.0159,0.0166,0,0,0,0,0,-0.0298,-0.0333,-0.0412,-0.0505,-0.0589,-0.0636,-0.069,-0.0697,-0.0683,-0.0638,-0.0599,-0.0468,-0.0246,-0.0148,-0.0011,0.0035,0.0225,0.0198,0.0271,0.0401,0.04,0.0354,0,0,0,0,0,0,-0.0311,-0.0366,-0.0405,-0.0526,-0.0597,-0.0683,-0.0717,-0.0709,-0.0676,-0.0637,-0.0517,-0.0442,-0.0225,-0.0321,-0.0009,0.0033,0.0096,0.0307,0.031,0.0402,0.0401,0.04,0.0353,0,0,0,0,0]}]]